VLG4BV LEBL-LFBD

Flight info

Callsign VLG4BV
Flight time 0h 45m
Altitude 32000
Route NATPI DCT EVNAM/N0459F340 DCT AGN DCT SECHE/N0391F180 R17 MIRBA
Aircraft A320/M-SDE3FGHIRWY/LB1

Departure

Time 2026-05-08 19:45
Airport Josep Tarradellas Barcelona-El Prat Airport (LEBL)

Arrival

Time 2026-05-08 20:31
Airport Bordeaux–Mérignac Airport (LFBD)
Time Latitude Longitude Altitude Speed Heading
2026-05-08 19:20 41.29052 2.08110 19 ft 0 kts 335°
2026-05-08 19:36 41.29045 2.08115 19 ft 4 kts 335°
2026-05-08 19:36 41.29021 2.08129 19 ft 4 kts 339°
2026-05-08 19:37 41.28995 2.08138 20 ft 4 kts
2026-05-08 19:37 41.28972 2.08130 3 ft 4 kts 51°
2026-05-08 19:37 41.28966 2.08116 23 ft 1 kts 65°
2026-05-08 19:37 41.28965 2.08115 23 ft 0 kts 65°
2026-05-08 19:40 41.28975 2.08143 21 ft 12 kts 66°
2026-05-08 19:40 41.29003 2.08228 22 ft 11 kts 66°
2026-05-08 19:41 41.29025 2.08291 19 ft 11 kts 65°
2026-05-08 19:41 41.28984 2.08343 18 ft 15 kts 187°
2026-05-08 19:41 41.28853 2.08287 17 ft 24 kts 199°
2026-05-08 19:41 41.28718 2.08225 16 ft 11 kts 193°
2026-05-08 19:42 41.28695 2.08275 17 ft 10 kts 52°
2026-05-08 19:42 41.28761 2.08437 17 ft 30 kts 64°
2026-05-08 19:42 41.28854 2.08709 17 ft 33 kts 66°
2026-05-08 19:42 41.28982 2.09082 18 ft 29 kts 65°
2026-05-08 19:43 41.29040 2.09251 18 ft 30 kts 65°
2026-05-08 19:43 41.29127 2.09506 17 ft 31 kts 65°
2026-05-08 19:43 41.29215 2.09758 18 ft 29 kts 66°
2026-05-08 19:43 41.29279 2.09959 19 ft 17 kts 77°
2026-05-08 19:44 41.29247 2.10113 17 ft 19 kts 110°
2026-05-08 19:44 41.29255 2.10264 14 ft 15 kts 85°
2026-05-08 19:44 41.29208 2.10291 15 ft 9 kts 237°
2026-05-08 19:44 41.29109 2.09998 18 ft 75 kts 245°
2026-05-08 19:45 41.28789 2.09064 18 ft 144 kts 245°
2026-05-08 19:45 41.28303 2.07665 360 ft 171 kts 244°
2026-05-08 19:45 41.27634 2.06410 1165 ft 170 kts 210°
2026-05-08 19:45 41.26496 2.05823 1712 ft 186 kts 190°
2026-05-08 19:46 41.25141 2.05489 2159 ft 211 kts 187°
2026-05-08 19:46 41.23668 2.05157 3059 ft 215 kts 188°
2026-05-08 19:46 41.20710 2.04366 5044 ft 219 kts 192°
2026-05-08 19:47 41.19211 2.03926 5980 ft 221 kts 193°
2026-05-08 19:47 41.17733 2.03242 6718 ft 235 kts 216°
2026-05-08 19:47 41.16786 2.01472 7488 ft 244 kts 255°
2026-05-08 19:47 41.16865 1.99214 8326 ft 259 kts 288°
2026-05-08 19:48 41.17711 1.96995 8931 ft 279 kts 300°
2026-05-08 19:48 41.18808 1.94824 9860 ft 286 kts 303°
2026-05-08 19:48 41.19993 1.92629 10492 ft 304 kts 303°
2026-05-08 19:48 41.21270 1.90253 10861 ft 328 kts 303°
2026-05-08 19:49 41.22621 1.87681 11206 ft 350 kts 304°
2026-05-08 19:49 41.24291 1.85252 11834 ft 361 kts 314°
2026-05-08 19:49 41.26094 1.82897 12682 ft 365 kts 313°
2026-05-08 19:49 41.27907 1.80500 13549 ft 369 kts 312°
2026-05-08 19:50 41.29706 1.78105 14317 ft 373 kts 312°
2026-05-08 19:50 41.31544 1.75655 15076 ft 375 kts 311°
2026-05-08 19:50 41.33392 1.73187 15844 ft 377 kts 311°
2026-05-08 19:50 41.35249 1.70710 16635 ft 379 kts 310°
2026-05-08 19:51 41.37118 1.68220 17401 ft 381 kts 310°
2026-05-08 19:51 41.38991 1.65720 18152 ft 382 kts 310°
2026-05-08 19:51 41.40872 1.63208 18820 ft 384 kts 309°
2026-05-08 19:51 41.42763 1.60678 19421 ft 387 kts 309°
2026-05-08 19:52 41.44666 1.58130 19986 ft 390 kts 309°
2026-05-08 19:52 41.46586 1.55557 20564 ft 393 kts 309°
2026-05-08 19:52 41.48680 1.53157 21121 ft 402 kts 319°
2026-05-08 19:52 41.51140 1.51273 21666 ft 415 kts 329°
2026-05-08 19:53 41.53914 1.50032 22175 ft 428 kts 341°
2026-05-08 19:53 41.56878 1.49356 22707 ft 435 kts 345°
2026-05-08 19:53 41.59875 1.48714 23232 ft 438 kts 344°
2026-05-08 19:53 41.62891 1.48057 23718 ft 441 kts 344°
2026-05-08 19:54 41.65926 1.47389 24137 ft 443 kts 344°
2026-05-08 19:54 41.68939 1.46726 24562 ft 446 kts 344°
2026-05-08 19:54 41.72002 1.46049 24984 ft 448 kts 344°
2026-05-08 19:54 41.75085 1.45365 25411 ft 450 kts 343°
2026-05-08 19:55 41.78182 1.44675 25849 ft 452 kts 344°
2026-05-08 19:55 41.81296 1.43982 26252 ft 455 kts 344°
2026-05-08 19:55 41.84428 1.43289 26641 ft 457 kts 344°
2026-05-08 19:55 41.87576 1.42597 27032 ft 460 kts 344°
2026-05-08 19:56 41.90736 1.41903 27409 ft 462 kts 344°
2026-05-08 19:56 41.93917 1.41203 27796 ft 464 kts 344°
2026-05-08 19:56 41.97115 1.40496 28161 ft 466 kts 344°
2026-05-08 19:56 42.00323 1.39786 28538 ft 469 kts 344°
2026-05-08 19:57 42.03551 1.39067 28871 ft 472 kts 344°
2026-05-08 19:57 42.06791 1.38342 29241 ft 473 kts 344°
2026-05-08 19:57 42.10036 1.37614 29741 ft 472 kts 343°
2026-05-08 19:57 42.13271 1.36890 30251 ft 471 kts 343°
2026-05-08 19:58 42.16498 1.36172 30665 ft 469 kts 343°
2026-05-08 19:58 42.19679 1.35466 31035 ft 470 kts 344°
2026-05-08 19:58 42.22906 1.34748 31383 ft 471 kts 344°
2026-05-08 19:58 42.26136 1.34026 31746 ft 471 kts 344°
2026-05-08 19:59 42.29377 1.33301 31985 ft 471 kts 344°
2026-05-08 19:59 42.32611 1.32579 32031 ft 470 kts 344°
2026-05-08 19:59 42.39056 1.31136 32028 ft 469 kts 344°
2026-05-08 20:00 42.45511 1.29683 32032 ft 471 kts 345°
2026-05-08 20:00 42.51993 1.28210 32036 ft 473 kts 345°
2026-05-08 20:01 42.58483 1.26733 32034 ft 473 kts 345°
2026-05-08 20:01 42.64980 1.25266 32043 ft 473 kts 345°
2026-05-08 20:02 42.71478 1.23798 32023 ft 474 kts 345°
2026-05-08 20:02 42.78019 1.22591 32000 ft 476 kts 348°
2026-05-08 20:03 42.84584 1.21793 32008 ft 478 kts 350°
2026-05-08 20:03 42.91206 1.21019 31987 ft 477 kts 349°
2026-05-08 20:04 42.97808 1.20132 31992 ft 477 kts 348°
2026-05-08 20:04 43.04406 1.19191 31993 ft 476 kts 349°
2026-05-08 20:05 43.10994 1.18260 31983 ft 476 kts 349°
2026-05-08 20:05 43.17572 1.17365 31981 ft 475 kts 349°
2026-05-08 20:06 43.24139 1.16460 31984 ft 474 kts 349°
2026-05-08 20:06 43.30699 1.15542 31976 ft 474 kts 349°
2026-05-08 20:07 43.37265 1.14620 31972 ft 474 kts 349°
2026-05-08 20:07 43.43835 1.13693 31806 ft 475 kts 349°
2026-05-08 20:08 43.47078 1.12976 31554 ft 468 kts 339°
2026-05-08 20:08 43.50049 1.11299 31303 ft 457 kts 324°
2026-05-08 20:08 43.52710 1.08958 31052 ft 454 kts 321°
2026-05-08 20:08 43.55344 1.06560 30806 ft 454 kts 321°
2026-05-08 20:09 43.57934 1.04185 30566 ft 453 kts 321°
2026-05-08 20:09 43.60555 1.01772 30320 ft 453 kts 320°
2026-05-08 20:09 43.63176 0.99359 30097 ft 453 kts 321°
2026-05-08 20:09 43.65805 0.96942 29829 ft 456 kts 321°
2026-05-08 20:10 43.68453 0.94510 29535 ft 458 kts 321°
2026-05-08 20:10 43.71103 0.92075 29260 ft 459 kts 321°
2026-05-08 20:10 43.73764 0.89632 28974 ft 459 kts 321°
2026-05-08 20:10 43.76427 0.87183 28694 ft 460 kts 321°
2026-05-08 20:11 43.79090 0.84728 28423 ft 460 kts 321°
2026-05-08 20:11 43.81751 0.82270 28150 ft 460 kts 321°
2026-05-08 20:11 43.84413 0.79803 27889 ft 463 kts 322°
2026-05-08 20:11 43.87105 0.77305 27627 ft 467 kts 322°
2026-05-08 20:12 43.89811 0.74797 27379 ft 468 kts 322°
2026-05-08 20:12 43.92512 0.72293 27114 ft 467 kts 322°
2026-05-08 20:12 43.95214 0.69789 26851 ft 467 kts 322°
2026-05-08 20:12 43.97918 0.67286 26599 ft 467 kts 322°
2026-05-08 20:13 44.00588 0.64809 26340 ft 468 kts 322°
2026-05-08 20:13 44.03294 0.62292 26096 ft 468 kts 323°
2026-05-08 20:13 44.06016 0.59755 25844 ft 474 kts 323°
2026-05-08 20:13 44.08761 0.57191 25595 ft 476 kts 323°
2026-05-08 20:14 44.11512 0.54622 25348 ft 477 kts 323°
2026-05-08 20:14 44.14270 0.52044 25101 ft 477 kts 323°
2026-05-08 20:14 44.17027 0.49466 24864 ft 478 kts 323°
2026-05-08 20:14 44.19785 0.46881 24623 ft 477 kts 323°
2026-05-08 20:15 44.22532 0.44301 24395 ft 475 kts 323°
2026-05-08 20:15 44.25270 0.41723 24150 ft 476 kts 323°
2026-05-08 20:15 44.28009 0.39140 23165 ft 475 kts 323°
2026-05-08 20:15 44.30748 0.36558 21829 ft 476 kts 323°
2026-05-08 20:16 44.33481 0.33983 20940 ft 469 kts 323°
2026-05-08 20:16 44.36180 0.31442 19964 ft 465 kts 323°
2026-05-08 20:16 44.38845 0.28928 18986 ft 462 kts 323°
2026-05-08 20:16 44.41481 0.26433 18307 ft 453 kts 323°
2026-05-08 20:17 44.44078 0.23973 17363 ft 449 kts 324°
2026-05-08 20:17 44.46656 0.21533 16503 ft 445 kts 324°
2026-05-08 20:17 44.49203 0.19116 15706 ft 440 kts 324°
2026-05-08 20:17 44.51686 0.16754 14924 ft 434 kts 323°
2026-05-08 20:18 44.54168 0.14388 14164 ft 429 kts 323°
2026-05-08 20:18 44.56622 0.12046 13367 ft 424 kts 324°
2026-05-08 20:18 44.59052 0.09729 12519 ft 420 kts 324°
2026-05-08 20:18 44.61451 0.07443 11692 ft 415 kts 324°
2026-05-08 20:19 44.63814 0.05190 11188 ft 403 kts 324°
2026-05-08 20:19 44.66070 0.03035 11067 ft 382 kts 324°
2026-05-08 20:19 44.68210 0.00990 10943 ft 363 kts 324°
2026-05-08 20:19 44.70247 -0.00960 10830 ft 346 kts 324°
2026-05-08 20:20 44.72192 -0.02825 10712 ft 331 kts 324°
2026-05-08 20:20 44.74059 -0.04619 10579 ft 319 kts 324°
2026-05-08 20:20 44.75856 -0.06349 10425 ft 309 kts 323°
2026-05-08 20:20 44.77614 -0.08041 10196 ft 303 kts 324°
2026-05-08 20:21 44.79349 -0.09713 10056 ft 302 kts 324°
2026-05-08 20:21 44.81080 -0.11383 9905 ft 301 kts 324°
2026-05-08 20:21 44.82826 -0.13069 9377 ft 305 kts 324°
2026-05-08 20:21 44.84560 -0.14741 9038 ft 300 kts 324°
2026-05-08 20:22 44.86278 -0.16408 8613 ft 298 kts 321°
2026-05-08 20:22 44.87719 -0.18406 8215 ft 293 kts 304°
2026-05-08 20:22 44.88689 -0.20890 7801 ft 287 kts 288°
2026-05-08 20:22 44.89036 -0.22709 7530 ft 284 kts 277°
2026-05-08 20:23 44.89193 -0.26353 6972 ft 280 kts 270°
2026-05-08 20:23 44.89272 -0.29086 6647 ft 275 kts 270°
2026-05-08 20:23 44.89354 -0.31719 6518 ft 262 kts 270°
2026-05-08 20:23 44.89509 -0.34215 6389 ft 251 kts 281°
2026-05-08 20:24 44.90145 -0.36481 6096 ft 249 kts 300°
2026-05-08 20:24 44.91258 -0.38325 5838 ft 246 kts 315°
2026-05-08 20:24 44.92481 -0.39992 5540 ft 243 kts 314°
2026-05-08 20:24 44.93684 -0.41645 5015 ft 241 kts 314°
2026-05-08 20:25 44.94879 -0.43295 4459 ft 240 kts 314°
2026-05-08 20:25 44.96049 -0.44914 4118 ft 230 kts 314°
2026-05-08 20:25 44.97075 -0.46607 4027 ft 220 kts 296°
2026-05-08 20:25 44.97471 -0.48605 3961 ft 207 kts 269°
2026-05-08 20:26 44.97213 -0.50546 3809 ft 199 kts 243°
2026-05-08 20:26 44.96415 -0.52104 3601 ft 196 kts 223°
2026-05-08 20:26 44.95481 -0.53443 3381 ft 191 kts 223°
2026-05-08 20:26 44.94561 -0.54764 3121 ft 186 kts 223°
2026-05-08 20:27 44.93665 -0.56053 2871 ft 182 kts 223°
2026-05-08 20:27 44.92790 -0.57310 2631 ft 177 kts 223°
2026-05-08 20:27 44.91936 -0.58537 2399 ft 172 kts 223°
2026-05-08 20:27 44.91128 -0.59698 2187 ft 160 kts 222°
2026-05-08 20:28 44.90373 -0.60783 1975 ft 151 kts 222°
2026-05-08 20:28 44.89652 -0.61816 1780 ft 145 kts 222°
2026-05-08 20:28 44.88948 -0.62824 1597 ft 144 kts 222°
2026-05-08 20:28 44.88249 -0.63821 1401 ft 142 kts 223°
2026-05-08 20:29 44.87556 -0.64816 1213 ft 142 kts 223°
2026-05-08 20:29 44.86865 -0.65807 1025 ft 142 kts 223°
2026-05-08 20:29 44.86178 -0.66799 820 ft 141 kts 223°
2026-05-08 20:29 44.85490 -0.67782 636 ft 140 kts 224°
2026-05-08 20:30 44.84808 -0.68757 459 ft 139 kts 223°
2026-05-08 20:30 44.84128 -0.69728 274 ft 139 kts 224°
2026-05-08 20:30 44.83468 -0.70665 162 ft 127 kts 225°
2026-05-08 20:30 44.82969 -0.71386 159 ft 78 kts 226°
2026-05-08 20:31 44.82727 -0.71733 164 ft 35 kts 224°
2026-05-08 20:31 44.82597 -0.71915 164 ft 18 kts 223°
2026-05-08 20:31 44.82513 -0.71871 160 ft 16 kts 126°
2026-05-08 20:31 44.82450 -0.71751 161 ft 13 kts 127°
2026-05-08 20:32 44.82444 -0.71689 163 ft 5 kts 61°
2026-05-08 20:32 44.82518 -0.71578 164 ft 22 kts 45°
2026-05-08 20:32 44.82648 -0.71394 163 ft 31 kts 45°
2026-05-08 20:32 44.82791 -0.71190 157 ft 29 kts 44°
2026-05-08 20:33 44.82923 -0.70999 161 ft 24 kts 45°
2026-05-08 20:33 44.83040 -0.70832 162 ft 24 kts 44°
2026-05-08 20:33 44.83166 -0.70654 162 ft 22 kts 46°
2026-05-08 20:33 44.83209 -0.70574 162 ft 7 kts 87°
2026-05-08 20:34 44.83189 -0.70521 162 ft 5 kts 109°
2026-05-08 20:34 44.83221 -0.70454 162 ft 7 kts 46°
2026-05-08 20:34 44.83184 -0.70358 162 ft 1 kts 133°